Weather History for Mosinee, WI

Change the Weather History Date:

Friday, February 7, 2014

  Actual Average Record
Temperature  
Mean Temperature 0 °F -  
Max Temperature 8 °F 25 °F 71 °F (1997)
Min Temperature -9 °F 9 °F -13 °F (2003)
Degree Days  
Heating Degree Days 66    
Moisture  
Dew Point -9 °F    
Average Humidity 75    
Maximum Humidity 92    
Minimum Humidity 48    
Precipitation  
Precipitation 0.00 in - - ()
Sea Level Pressure  
Sea Level Pressure 30.12 in    
Wind  
Wind Speed 10 mph (SW)    
Max Wind Speed 24 mph    
Max Gust Speed 29 mph    
Visibility 10 miles    
Events Snow    
Averages and records for this station are not official NWS values.
T = Trace of Precipitation, MM = Missing Value Source: NWS Daily Summary

Daily Weather History Graph

Daily Weather History Graph

Search for Another Location

Airport:

Trip Planner

Search our weather history database for the weather conditions in past years. The results will help you decide how hot, cold, wet, or windy it might be!

Date:

Astronomy

Feb. 07, 2014 Rise Set
Actual Time 7:10 AM CST 5:15 PM CST
Civil Twilight 6:39 AM CST 5:46 PM CST
Nautical Twilight 6:05 AM CST 6:21 PM CST
Astronomical Twilight 5:31 AM CST 6:55 PM CST
Moon 11:24 AM CST (2/7) 1:28 AM CST (2/7)
Length of Visible Light 11h 06m
Length of Day
10h 05m
First Quarter, 59% of the Moon is Illuminated
Feb 7
First Quarter
Feb 14
Full
Feb 22
Last Quarter
Mar 1
New
Mar 8
First Quarter

Hourly Weather History & Observations

Time (CST) Temp. Windchill Dew Point Humidity Pressure Visibility Wind Dir Wind Speed Gust Speed Precip Events Conditions
12:15 AM -7.6 °F -23.4 °F -11.2 °F 84% 30.14 in 10.0 mi WSW 8.1 mph - N/A   Clear
12:35 AM -7.6 °F -23.4 °F -13.0 °F 77% 30.14 in 10.0 mi WSW 8.1 mph - N/A   Clear
12:55 AM -7.6 °F -25.7 °F -11.2 °F 84% 30.13 in 10.0 mi WSW 10.4 mph - N/A   Scattered Clouds
1:15 AM -7.6 °F -25.7 °F -9.4 °F 92% 30.13 in 10.0 mi WSW 10.4 mph - N/A   Mostly Cloudy
1:35 AM -7.6 °F -25.7 °F -9.4 °F 92% 30.13 in 10.0 mi WSW 10.4 mph - N/A   Scattered Clouds
1:55 AM -7.6 °F -25.7 °F -9.4 °F 92% 30.13 in 10.0 mi WSW 10.4 mph - N/A   Clear
2:15 AM -7.6 °F -25.7 °F -11.2 °F 84% 30.13 in 10.0 mi SW 10.4 mph - N/A   Clear
2:35 AM -7.6 °F -24.6 °F -9.4 °F 92% 30.12 in 10.0 mi WSW 9.2 mph - N/A   Clear
2:55 AM -7.6 °F -24.6 °F -9.4 °F 92% 30.12 in 10.0 mi SW 9.2 mph - N/A   Clear
3:15 AM -7.6 °F -23.4 °F -11.2 °F 84% 30.11 in 10.0 mi SW 8.1 mph - N/A Snow Light Snow
3:35 AM -7.6 °F -23.4 °F -11.2 °F 84% 30.11 in 10.0 mi WSW 8.1 mph - N/A   Clear
3:55 AM -7.6 °F -24.6 °F -11.2 °F 84% 30.11 in 10.0 mi SW 9.2 mph - N/A   Clear
4:15 AM -7.6 °F -24.6 °F -11.2 °F 84% 30.11 in 10.0 mi SW 9.2 mph - N/A   Clear
4:35 AM -7.6 °F -26.6 °F -9.4 °F 92% 30.11 in 10.0 mi SW 11.5 mph - N/A   Clear
7:45 AM -9.4 °F -27.9 °F -11.2 °F 92% 30.11 in 10.0 mi WSW 10.4 mph - N/A   Clear
8:52 AM -5.8 °F -26.0 °F -9.4 °F 84% 30.11 in 10.0 mi WSW 13.8 mph - N/A   Clear
9:55 AM -2.2 °F -22.9 °F -7.6 °F 78% 30.12 in 10.0 mi WSW 16.1 mph - N/A   Clear
10:50 AM - - - N/A% 30.12 in 10.0 mi WSW 13.8 mph 18.4 mph N/A   Clear
11:45 AM 3.2 °F -17.1 °F -5.8 °F 66% 30.11 in 10.0 mi WSW 18.4 mph 21.9 mph N/A   Clear
12:50 PM 6.8 °F -14.7 °F -5.8 °F 56% 30.09 in 10.0 mi WSW 24.2 mph 28.8 mph N/A   Clear
1:45 PM 8.6 °F -10.5 °F -7.6 °F 48% 30.09 in 10.0 mi WSW 19.6 mph 24.2 mph N/A   Clear
2:45 PM 8.6 °F -10.0 °F -4.0 °F 57% 30.09 in 10.0 mi WSW 18.4 mph 25.3 mph N/A   Clear
3:45 PM 8.6 °F -8.3 °F -4.0 °F 57% 30.09 in 10.0 mi SW 15.0 mph 26.5 mph N/A   Clear
4:45 PM 8.6 °F -8.9 °F -4.0 °F 57% 30.09 in 10.0 mi WSW 16.1 mph 23.0 mph N/A   Clear
5:45 PM 6.8 °F -7.8 °F -7.6 °F 52% 30.11 in 10.0 mi WSW 10.4 mph - N/A   Clear
6:50 PM 5.0 °F -11.6 °F -7.6 °F 56% 30.12 in 10.0 mi WSW 12.7 mph - N/A   Clear
7:50 PM -0.4 °F -14.7 °F -9.4 °F 66% 30.13 in 10.0 mi SW 8.1 mph - N/A   Clear
8:45 PM -0.4 °F -15.7 °F -9.4 °F 66% 30.13 in 10.0 mi SW 9.2 mph - N/A   Clear
9:15 PM 1.4 °F -13.5 °F -7.6 °F 66% 30.14 in 10.0 mi SW 9.2 mph - N/A   Clear
9:35 PM 1.4 °F -14.5 °F -7.6 °F 66% 30.14 in 10.0 mi SW 10.4 mph - N/A   Clear
9:50 PM -0.4 °F -14.7 °F -9.4 °F 66% 30.14 in 10.0 mi SW 8.1 mph - N/A   Clear
9:55 PM -0.4 °F -13.4 °F -7.6 °F 72% 30.14 in 10.0 mi SW 6.9 mph - N/A   Clear
10:15 PM -0.4 °F -14.7 °F -7.6 °F 72% 30.14 in 10.0 mi SW 8.1 mph - N/A   Clear
10:35 PM -2.2 °F -14.2 °F -9.4 °F 71% 30.14 in 10.0 mi SW 5.8 mph - N/A   Clear
10:55 PM -0.4 °F -10.4 °F -7.6 °F 72% 30.15 in 10.0 mi SSW 4.6 mph - N/A   Clear
11:15 PM -4.0 °F -16.3 °F -9.4 °F 78% 30.15 in 10.0 mi SW 5.8 mph - N/A   Clear
11:35 PM -2.2 °F -10.4 °F -7.6 °F 78% 30.15 in 10.0 mi SW 3.5 mph - N/A   Clear
11:55 PM -2.2 °F - -7.6 °F 78% 30.15 in 10.0 mi Calm Calm - N/A   Clear